AirNav   Jet Aviation Boston
 
 791 users online  

07ID Shepard Strip Airport
Oldtown, Idaho, USA

GOING TO OLDTOWN?


FAA INFORMATION EFFECTIVE 26 APRIL 2018

Location

FAA Identifier: 07ID
Lat/Long: 48-08-57.1560N / 116-59-52.8480W
48-08.952600N / 116-59.880800W
48.1492100 / -116.9980133
(estimated)
Elevation: 2313.3 ft. / 705 m
From city: 3 miles SE of OLDTOWN, ID
Time zone: UTC -7 (UTC -8 during Standard Time)
Zip code: 83822

Airport Operations

Airport use: Private use. Permission required prior to landing
Activation date: 07/2016
Control tower: no
ARTCC: SEATTLE CENTER
FSS: BOISE FLIGHT SERVICE STATION
Attendance: 
Segmented circle: no

Airport Communications

WX AWOS-3 at SZT (20 nm NE): 135.425 (208-263-3074)

Nearby radio navigation aids

VOR radial/distance  VOR name  Freq  Var
COEr323/23.6COEUR D'ALENE VOR/DME108.8019E

 
NDB name  Hdg/Dist  Freq  Var  ID
SANDPOE230/19.326414ESZT ... --.. -
DEER PARK042/20.336516EDPY -.. .--. -.--
IONE133/37.537921EION .. --- -.

Airport Services

Runway Information

Runway 18/36

Dimensions: 1955 x 110 ft. / 596 x 34 m
Surface: turf
RUNWAY 18  RUNWAY 36
Latitude: 48-09.113317N48-08.791867N
Longitude: 116-59.876800W116-59.884800W
Elevation: 2313.3 ft.2297.8 ft.
Traffic pattern: leftleft

Airport Ownership and Management from official FAA records

Ownership: Privately-owned
Owner: DANIEL R. (JR) SHEPARD, JR.
94 SHEPARD ROAD
OLDTOWN, ID
Phone 208 659 6193
Manager: DANIEL R. (JR) SHEPARD
94 SHEPARD ROAD
ODTOWN, ID 83822

Instrument Procedures

There are no published instrument procedures at 07ID.

Some nearby airports with instrument procedures:

KSZT - Sandpoint Airport (20 nm NE)
KDEW - Deer Park Airport (20 nm SW)
KCOE - Coeur d'Alene Airport - Pappy Boyington Field (24 nm S)
KSFF - Felts Field Airport (31 nm SW)
KGEG - Spokane International Airport (38 nm SW)
 
Loc | Ops | Rwys | IFR | FBO | Links
Com | Nav | Svcs | Stats | Notes

AirNav Hotels Sweepstakes
 
Aerial photo
No photo
 
Airport distance calculator
Flying to Shepard Strip Airport? Find the distance to fly.

From to 07ID

Sunrise and sunset
Times for 26-Apr-2018
 Local
(UTC-7)
 Zulu
(UTC)
Morning civil twilight05:0512:05
Sunrise05:3912:39
Sunset19:5302:53
Evening civil twilight20:2703:27

Current date and time
Zulu (UTC)  27-Apr-2018 02:57:05
Local (UTC-7)  26-Apr-2018 19:57:05
 
METAR
KSZT 
20nm NE 
270235Z AUTO 00000KT 10SM CLR 15/01 A2999 RMK AO2
KDEW 
21nm SW 
270253Z AUTO 00000KT 10SM CLR 16/05 A2999 RMK AO2 SLP152 T01560050 56017
KCOE 
24nm S 
270156Z AUTO 02005KT 10SM CLR 23/02 A2999 RMK AO2 SLP169 T02280017
KSFF 
31nm SW 
270253Z AUTO 00000KT 10SM CLR 18/05 A2997 RMK AO2 SLP146 T01780050 56017
KGEG 
39nm SW 
270253Z 32004KT 10SM FEW250 21/00 A2999 RMK AO2 SLP149 T02060000 56017
TAF
KCOE 
24nm S 
261725Z 2618/2718 04011KT P6SM SKC FM261900 04006KT P6SM SKC FM271000 04013KT P6SM SKC
NOTAMs
Click for the latest NOTAMs
NOTAMs are issued by the DoD/FAA and will open in a separate window not controlled by AirNav.

 

 
 

Would you like to see your business listed on this page?

 If your business provides an interesting product or service to pilots, flight crews, aircraft, or users of the Shepard Strip Airport, you should consider listing it here.  To start the listing process, click on the button below
 
Add a business
 

Other Pages about Shepard Strip Airport

Update a link
 
Copyright © AirNav, LLC. All rights reserved. Privacy Policy  Contact